YARILO 2 (46491 NORAD) Tracking and Keplerian Element Data

This shows tracking and keplerian element data for the satellite.

Feedback or suggestion? Click here.




ElementValue
Catalog46491
NameYARILO 2
Epoch Orbit485
Epoch Day304.82565201
Epoch Year2020
RAAN238.024
Inclination97.6694
Eccentricity0.0019574
Argument of Perigee131.6191
Mean Anonmoly228.6715
Mean Motion15.03493912
Decay Rate1.421E-05
L11 46491U 20068F 20304.82565201 .00001421 00000-0 10836-3 0 9997
L22 46491 97.6694 238.0240 0019574 131.6191 228.6715 15.03493912 4859

Live tracking and technical data element details for YARILO 2 (NORAD 46491). YARILO 2 can be tracked NOW for your location showing map with azimuth and elevation plus other details from your city location.

Track the satellite on the map from your city or location and see movement details for azimuth, elevation, latitude, longitude, range, height, and movement on the map or in text.







IsCatalogInMostPopularTable: catalog: 46491, numindb: 4
Update: records affected: 1



GetName: 46491 YARILO 2

Hit Count: updated at: Sat, 31 Oct 2020 10:20:16 GMT